Location: Dodgeville, WI 53533, USA
(43.0344°N, 90.0900°W)
Time: 02:20:55
(UTC-06:00)

Envisat - Visible Passes

Search period start: 19 February 2019 00:00
Search period end: 01 March 2019 00:00
Orbit: 764 x 766 km, 98.2° (Epoch: 19 February)

Date Brightness Start Highest point End Pass type
(mag) Time Alt. Az. Time Alt. Az. Time Alt. Az.
19 Feb 2.9 18:30:09 10° SSE 18:35:13 77° ENE 18:40:19 10° N visible
19 Feb 6.1 20:12:32 10° WSW 20:14:48 13° W 20:17:05 10° WNW visible
20 Feb 5.0 19:33:20 10° SSW 19:37:40 28° W 19:42:03 10° NW visible
21 Feb 6.7 06:04:26 10° ENE 06:05:42 11° E 06:06:59 10° ESE visible
21 Feb 3.5 18:55:44 10° S 19:00:45 62° W 19:05:49 10° NNW visible
22 Feb 3.0 18:19:02 10° SSE 18:24:02 61° ENE 18:29:03 10° N visible
22 Feb 5.8 20:00:18 10° SW 20:03:27 16° W 20:06:38 10° NW visible
23 Feb 4.6 19:21:46 10° SSW 19:26:23 35° W 19:31:04 10° NNW visible
24 Feb 3.2 18:44:27 10° S 18:49:31 78° WSW 18:54:38 10° NNW visible
25 Feb 3.2 18:07:59 10° SE 18:12:52 49° ENE 18:17:45 10° N visible
25 Feb 5.5 19:48:22 10° SW 19:52:08 21° W 19:55:55 10° NW visible
26 Feb 4.2 19:10:17 10° S 19:15:07 45° W 19:20:00 10° NNW visible
27 Feb 3.0 18:33:14 10° SSE 18:38:19 84° ENE 18:43:26 10° NNW visible
27 Feb 6.1 20:16:15 10° WSW 20:17:59 12° W 20:19:43 10° WNW visible
28 Feb 5.2 19:36:37 10° SSW 19:40:50 26° W 19:45:04 10° NW visible
